User: anonymous   Login
Location: Gouy
(50.0008°N, 3.2556°E)
Time: 18:50:46
(UTC+00:00)
Language:

Cosmos 2151 Rocket - Orbit

View from above orbital plane
View from above orbital plane
View from above satellite
View from above satellite

Ground track
Ground track

The orbit data is extracted from the following two-line orbital elements,

1 21423U 91042B   24201.86173443  .00000855  00000-0  10750-3 0  9997
2 21423  82.4919  60.4600 0018420  48.0261 312.2518 14.80839462764564
Epoch (UTC): 19 July 2024 20:40:53
Eccentricity: 0.0018420
inclination: 82.4919°
perigee height: 614 km
apogee height: 639 km
right ascension of ascending node: 60.4600°
argument of perigee: 48.0261°
revolutions per day: 14.80839462
mean anomaly at epoch: 312.2518°
orbit number at epoch: 76456

The dashed part of the orbit path shows where the satellite is in the earth's shadow,  

DLR